Louisville, KY

11:55 PM EDT on May 28, 2017 (GMT -0400)
Louisville International-Standiford

Weather History for KSDF - February, 2014

Change the Weather History Date:

Tuesday, February 4, 2014

  Actual Average Record
Temperature  
Mean Temperature 29 °F 36 °F  
Max Temperature 33 °F 45 °F 73 °F (1890)
Min Temperature 25 °F 28 °F -7 °F (1996)
Degree Days  
Heating Degree Days 36 29  
Month to date heating degree days 106 116  
Since 1 July heating degree days 2866 2625  
Cooling Degree Days 0 0  
Month to date cooling degree days 0 0  
Year to date cooling degree days 0 0  
Moisture  
Dew Point 25 °F    
Average Humidity 82    
Maximum Humidity 92    
Minimum Humidity 72    
Precipitation  
Precipitation 1.43 in 0.12 in 1.43 in (2014)
Month to date precipitation 2.43 0.48  
Year to date precipitation 4.84 3.72  
Snow  
Snow 0.00 in 0.10 in 11.60 in (1998)
Month to date snowfall 5.2 0.7  
Since 1 July snowfall 19.3 7.2  
Snow Depth 4.00 in    
Sea Level Pressure  
Sea Level Pressure 30.11 in    
Wind  
Wind Speed 8 mph (NE)    
Max Wind Speed 18 mph    
Max Gust Speed 23 mph    
Visibility 4 miles    
Events Fog , Rain , Snow    
T = Trace of Precipitation, MM = Missing Value Source: NWS Daily Summary

Daily Weather History Graph

Daily Weather History Graph

Search for Another Location

Airport or City:

Trip Planner

Search our weather history database for the weather conditions in past years. The results will help you decide how hot, cold, wet, or windy it might be!

Date:

Astronomy

Feb. 04, 2014 Rise Set
Actual Time 7:45 AM EST 6:09 PM EST
Civil Twilight 7:17 AM EST 6:36 PM EST
Nautical Twilight 6:45 AM EST 7:08 PM EST
Astronomical Twilight 6:15 AM EST 7:39 PM EST
Moon 10:28 AM EST (2/4) 11:56 PM EST (2/4)
Length of Visible Light 11h 19m
Length of Day
10h 24m
Waxing Crescent, 29% of the Moon is Illuminated
Feb 4
Waxing Crescent
Feb 6
First Quarter
Feb 14
Full
Feb 22
Last Quarter
Mar 1
New

Hourly Weather History & Observations

Time (EST) Temp. Windchill Dew Point Humidity Pressure Visibility Wind Dir Wind Speed Gust Speed Precip Events Conditions
12:56 AM 26.1 °F - 21.0 °F 81% 30.32 in 5.0 mi Calm Calm - N/A   Overcast
1:56 AM 26.1 °F 20.5 °F 21.0 °F 81% 30.32 in 5.0 mi NE 4.6 mph - N/A   Overcast
2:56 AM 26.1 °F 19.4 °F 21.9 °F 84% 30.32 in 5.0 mi NE 5.8 mph - N/A   Overcast
3:56 AM 26.1 °F 19.4 °F 21.9 °F 84% 30.32 in 5.0 mi NE 5.8 mph - N/A   Overcast
4:56 AM 26.1 °F 19.4 °F 21.0 °F 81% 30.32 in 6.0 mi NE 5.8 mph - N/A   Overcast
5:56 AM 26.1 °F 19.4 °F 19.9 °F 78% 30.31 in 7.0 mi ENE 5.8 mph - N/A   Overcast
6:56 AM 25.0 °F 19.3 °F 19.9 °F 81% 30.35 in 7.0 mi ENE 4.6 mph - N/A   Overcast
7:56 AM 26.1 °F 18.4 °F 19.9 °F 78% 30.33 in 6.0 mi NE 6.9 mph - N/A   Overcast
8:56 AM 26.1 °F 18.4 °F 19.9 °F 78% 30.32 in 5.0 mi NE 6.9 mph - N/A   Haze
9:56 AM 28.0 °F 19.3 °F 21.0 °F 75% 30.31 in 6.0 mi NE 9.2 mph - N/A   Haze
10:56 AM 28.9 °F 21.1 °F 21.9 °F 75% 30.29 in 5.0 mi ENE 8.1 mph - N/A   Haze
11:56 AM 30.0 °F 21.7 °F 23.0 °F 75% 30.25 in 5.0 mi ENE 9.2 mph - N/A   Haze
12:25 PM 30.2 °F 20.2 °F 23.0 °F 75% 30.21 in 7.0 mi East 12.7 mph - N/A   Overcast
12:56 PM 30.0 °F 22.4 °F 24.1 °F 79% 30.22 in 6.0 mi East 8.1 mph - N/A   Haze
1:56 PM 30.9 °F 22.2 °F 24.1 °F 76% 30.18 in 6.0 mi ENE 10.4 mph - N/A   Haze
2:56 PM 30.9 °F 22.8 °F 24.1 °F 76% 30.14 in 6.0 mi NNE 9.2 mph - N/A   Haze
3:56 PM 32.0 °F 24.8 °F 24.1 °F 73% 30.12 in 6.0 mi NE 8.1 mph - N/A   Haze
4:50 PM 32.0 °F 22.5 °F 24.8 °F 75% 30.08 in 2.5 mi NE 12.7 mph - 0.00 in Snow Light Snow
4:51 PM 32.0 °F 23.0 °F 24.8 °F 75% 30.07 in 1.8 mi NE 11.5 mph - 0.00 in Snow Light Snow
4:53 PM 32.0 °F 22.5 °F 24.8 °F 75% 30.05 in 1.5 mi NE 12.7 mph - 0.00 in Snow Light Snow
4:56 PM 30.9 °F 20.2 °F 25.0 °F 79% 30.06 in 1.0 mi NE 15.0 mph - 0.00 in Snow Light Snow
5:00 PM 30.2 °F 18.1 °F 24.8 °F 80% 30.04 in 0.2 mi NE 18.4 mph 21.9 mph 0.00 in Snow Snow
5:10 PM 30.2 °F 18.9 °F 26.6 °F 86% 30.00 in 0.2 mi NE 16.1 mph - 0.05 in Fog , Snow Light Snow
5:14 PM 30.2 °F 18.9 °F 28.4 °F 93% 30.00 in 0.5 mi NE 16.1 mph - 0.05 in Fog , Snow Light Snow
5:20 PM 30.2 °F 19.8 °F 28.4 °F 93% 29.99 in 1.0 mi NE 13.8 mph - 0.06 in Rain Light Freezing Rain
5:50 PM 30.2 °F 20.2 °F 28.4 °F 93% 29.99 in 1.8 mi NE 12.7 mph 19.6 mph 0.19 in Rain Light Freezing Rain
5:56 PM 30.9 °F 21.2 °F 28.0 °F 89% 30.00 in 2.0 mi ENE 12.7 mph 18.4 mph 0.21 in Rain Light Freezing Rain
6:06 PM 30.2 °F 18.9 °F 28.4 °F 93% 29.98 in 2.0 mi ENE 16.1 mph - 0.04 in Rain Light Freezing Rain
6:21 PM 30.2 °F 21.9 °F 28.4 °F 93% 29.99 in 2.0 mi ENE 9.2 mph - 0.08 in Rain Light Freezing Rain
6:37 PM 30.2 °F 20.2 °F 28.4 °F 93% 29.97 in 3.0 mi ENE 12.7 mph 17.3 mph 0.13 in Rain Light Freezing Rain
6:56 PM 30.9 °F 23.5 °F 28.9 °F 92% 30.00 in 3.0 mi ENE 8.1 mph - 0.21 in Rain Light Freezing Rain
7:56 PM 32.0 °F 21.2 °F 28.9 °F 88% 29.95 in 4.0 mi ENE 16.1 mph - 0.29 in Rain Light Freezing Rain
8:20 PM 32.0 °F 22.5 °F 28.4 °F 87% 29.92 in 4.0 mi East 12.7 mph - 0.12 in Rain Light Freezing Rain
8:45 PM 32.0 °F 24.8 °F 30.2 °F 93% 29.94 in 5.0 mi ENE 8.1 mph - 0.18 in Rain Light Rain
8:56 PM 33.1 °F 26.9 °F 30.0 °F 89% 29.98 in 4.0 mi North 6.9 mph - 0.22 in Rain Rain
9:56 PM 33.1 °F 25.5 °F 30.0 °F 89% 29.93 in 4.0 mi NNE 9.2 mph - 0.21 in Rain Rain
10:18 PM 33.8 °F 27.0 °F 30.2 °F 87% 29.90 in 3.0 mi NNE 8.1 mph - 0.08 in Rain Rain
10:56 PM 33.1 °F 27.7 °F 30.9 °F 92% 29.90 in 4.0 mi East 5.8 mph - 0.22 in Rain Rain
11:39 PM 33.8 °F 25.3 °F 30.2 °F 87% 29.80 in 6.0 mi East 11.5 mph - 0.05 in Rain Light Rain
11:49 PM 33.8 °F 29.6 °F 30.2 °F 87% 29.82 in 7.0 mi ENE 4.6 mph - 0.06 in Rain Light Rain
11:56 PM 33.1 °F 27.7 °F 32.0 °F 96% 29.82 in 8.0 mi East 5.8 mph - 0.07 in Rain Light Rain